Dewpoint
62 62 62 62 61 60 61 61 61 61 61 61 61 60 60 60 60 59 58 59 57 56
61 62 62 62 61 61 62 60 60 59 58 58 59 59 59 59 59 59 58 59 58 57
60 61 62 62 61 61 62 61 60 59 58 58 58 58 58 58 59 58 57 58 58 57
59 60 61 61 61 61 62 61 60 58 57 57 57 57 57 57 58 58 57 59 58 57
59 60 60 61 61 61 61 61 60 59 58 56 56 56 56 56 57 57 57 57 57 57
58 59 59 60 60 61 61 61 61 60 58 57 56 55 56 56 56 57 57 57 57 56
57 58 58 60 60 60 60 59 60 60 59 58 56 55 55 55 56 56 57 57 58 57
52 58 59 60 59 59 59 58 58 58 59 59 57 56 55 55 55 55 55 55 55 54
49 55 58 59 58 58 58 57 58 57 56 53 51 41 46 53 55 54 53 53 46 44
46 51 57 58 58 57 57 55 51 49 47 44 42 40 41 40 42 40 40 41 40 36
42 45 54 58 57 55 51 48 45 43 41 39 37 37 37 36 35 34 34 34 35 34
39 41 46 52 53 49 45 42 39 39 38 36 35 35 35 35 33 32 32 32 32 33
38 39 43 50 48 45 41 38 37 36 36 35 34 35 35 34 32 29 28 29 30 31
37 39 42 47 43 40 37 35 34 33 34 34 34 34 34 33 30 28 27 26 26 27
Lifted_Index
-1 -1 -2 -2 -3 -3 -3 -3 -3 -3 -2 -2 -1 -0 0 0 1 1 2 3 3 3
-1 -1 -2 -2 -3 -3 -3 -3 -2 -2 -2 -1 -0 0 1 1 1 2 2 3 3 3
-0 -1 -1 -2 -2 -3 -3 -3 -2 -2 -1 -1 -0 0 1 1 2 2 3 3 3 3
0 -0 -1 -1 -2 -3 -3 -3 -2 -1 -1 -0 -0 0 1 1 2 2 3 3 3 3
1 1 -0 -1 -2 -2 -3 -2 -2 -1 -1 -0 -0 0 1 1 2 2 3 3 3 3
1 1 1 -0 -1 -2 -2 -2 -2 -1 -1 -0 -0 0 0 1 1 2 2 3 3 3
1 1 1 0 -1 -1 -1 -2 -1 -1 -0 -0 -0 -0 0 1 1 1 2 2 3 3
2 2 1 1 0 -0 -0 -1 -1 -0 -0 -0 -0 0 1 1 1 1 2 2 2 3
3 2 1 1 1 1 0 0 0 0 0 0 0 1 1 1 1 1 2 2 3 3
3 3 2 1 1 1 1 1 1 1 1 1 1 1 1 1 1 1 2 2 3 3
4 3 2 2 2 2 1 1 1 1 1 1 1 1 2 2 2 2 2 3 3 3
5 4 3 2 2 1 1 1 1 1 2 2 2 2 2 2 2 2 2 3 4 4
6 4 3 2 1 0 1 1 1 2 2 2 2 2 3 3 3 3 3 4 4 5
5 5 3 2 1 0 1 1 1 2 2 2 2 2 3 3 3 3 3 4 5 5